GW0571 Weather Reports


Display with metric or nautical units.
time (UTC)temp
F
wind
direction
speed
MPH
gust
MPH
rain 1hr
in
rain 24hr
in
rain mn
in
humidity
%
barometer
mb
20260831030728 64 150 0.0 1.0 0.00 0.00 0.00 91 1020.5
20260831030226 64 50 0.0 0.0 0.00 0.00 0.00 91 1020.6
20260831025726 64 124 0.0 1.0 0.00 0.00 0.00 91 1020.6
20260831025220 64 69 0.0 0.0 0.00 0.00 0.00 90 1020.6
20260831024717 64 69 0.0 1.0 0.00 0.00 0.00 90 1020.5
20260831024215 64 246 0.0 0.0 0.00 0.00 0.00 89 1020.7
20260831023714 64 246 0.0 0.0 0.00 0.00 0.00 89 1020.7
20260831023213 64 246 0.0 0.0 0.00 0.00 0.00 89 1020.7
20260831022703 64 246 0.0 3.0 0.00 0.00 0.00 89 1020.6
20260831022157 64 142 0.0 0.0 0.00 0.00 0.00 89 1020.6
20260831021656 65 13 0.0 0.0 0.00 0.00 0.00 89 1020.7
20260831021152 65 13 0.0 0.0 0.00 0.00 0.00 89 1020.8
20260831020648 65 244 2.0 2.0 0.00 0.00 0.00 88 1020.8
20260831020148 65 256 0.0 3.0 0.00 0.00 0.00 88 1020.6
20260831015643 65 111 1.0 2.0 0.00 0.00 0.00 88 1020.6
20260831015143 65 223 0.0 2.0 0.00 0.00 0.00 88 1020.5
20260831014638 65 230 0.0 0.0 0.00 0.00 0.00 88 1020.4
20260831014133 65 113 0.0 1.0 0.00 0.00 0.00 87 1020.7
20260831013630 65 202 0.0 5.0 0.00 0.00 0.00 87 1020.7
20260831013129 65 256 1.0 2.0 0.00 0.00 0.00 87 1020.7
20260831012624 65 269 0.0 2.0 0.00 0.00 0.00 86 1020.5
20260831012119 66 247 2.0 3.0 0.00 0.00 0.00 86 1020.7
20260831011618 66 235 3.0 4.0 0.00 0.00 0.00 86 1020.5
20260831011114 66 282 0.0 5.0 0.00 0.00 0.00 86 1020.2
20260831010610 65 235 2.0 3.0 0.00 0.00 0.00 86 1020.3
20260831010106 66 254 2.0 3.0 0.00 0.00 0.00 86 1020.5
20260831005605 65 228 1.0 3.0 0.00 0.00 0.00 87 1020.3
20260831005100 66 230 0.0 0.0 0.00 0.00 0.00 86 1020.1
20260831004556 66 230 0.0 1.0 0.00 0.00 0.00 85 1020.1
20260831004052 66 235 0.0 2.0 0.00 0.00 0.00 85 1020.1
20260831003548 66 309 0.0 0.0 0.00 0.00 0.00 86 1020.0
20260831003043 66 309 0.0 3.0 0.00 0.00 0.00 85 1020.0
20260831002542 65 232 1.0 2.0 0.00 0.00 0.00 87 1019.8
20260831002037 65 32 0.0 0.0 0.00 0.00 0.00 87 1019.9
20260831001533 66 32 0.0 0.0 0.00 0.00 0.00 86 1019.8
20260831001029 66 50 0.0 3.0 0.00 0.00 0.00 86 1019.4
20260831000525 66 50 0.0 1.0 0.00 0.00 0.00 86 1019.6
20260831000024 66 37 0.0 0.0 0.00 0.00 0.00 85 1019.5
20260830235518 66 287 0.0 3.0 0.00 0.00 0.00 84 1019.4
20260830235013 66 285 0.0 3.0 0.00 0.00 0.00 84 1019.3
20260830234508 66 314 0.0 1.0 0.00 0.00 0.00 84 1019.2
20260830234003 66 322 0.0 1.0 0.00 0.00 0.00 84 1019.5
20260830233459 66 248 0.0 4.0 0.00 0.00 0.00 84 1019.2
20260830232954 66 326 0.0 2.0 0.00 0.00 0.00 85 1019.5
20260830232450 67 322 0.0 1.0 0.00 0.00 0.00 84 1019.5
20260830231947 67 232 3.0 4.0 0.00 0.00 0.00 82 1019.4
20260830231442 67 234 2.0 3.0 0.00 0.00 0.00 82 1019.2
20260830230941 67 252 1.0 3.0 0.00 0.00 0.00 82 1019.4
20260830230437 67 229 1.0 2.0 0.00 0.00 0.00 83 1019.2
20260830225936 67 246 0.0 2.0 0.00 0.00 0.00 82 1019.3
20260830225432 67 249 2.0 3.0 0.00 0.00 0.00 82 1019.4
20260830224932 67 230 0.0 1.0 0.00 0.00 0.00 82 1019.4
20260830224430 68 249 0.0 2.0 0.00 0.00 0.00 82 1019.4
20260830223927 68 230 0.0 3.0 0.00 0.00 0.00 82 1019.3
20260830223423 68 238 2.0 3.0 0.00 0.00 0.00 82 1019.4
20260830222922 68 235 0.0 2.0 0.00 0.00 0.00 81 1019.3
20260830222418 68 243 1.0 1.0 0.00 0.00 0.00 81 1019.2
20260830221914 68 259 2.0 3.0 0.00 0.00 0.00 81 1019.1
20260830221410 68 249 0.0 0.0 0.00 0.00 0.00 82 1019.4
20260830220905 68 299 0.0 2.0 0.00 0.00 0.00 82 1019.3
20260830220405 68 283 0.0 2.0 0.00 0.00 0.00 82 1019.2
20260830215902 68 249 0.0 1.0 0.00 0.00 0.00 84 1019.3
20260830215402 68 142 0.0 1.0 0.00 0.00 0.00 84 1019.1
20260830214857 68 173 0.0 1.0 0.00 0.00 0.00 84 1018.9
20260830214352 68 157 0.0 0.0 0.00 0.00 0.00 83 1019.2
20260830213847 68 137 2.0 2.0 0.00 0.00 0.00 82 1019.1
20260830213342 68 150 0.0 1.0 0.00 0.00 0.00 81 1019.1
20260830212838 68 153 1.0 2.0 0.00 0.00 0.00 82 1019.3
20260830212333 68 229 0.0 1.0 0.00 0.00 0.00 81 1019.4
20260830211832 68 245 0.0 2.0 0.00 0.00 0.00 80 1019.4
20260830211327 68 205 0.0 0.0 0.00 0.00 0.00 80 1019.4
20260830210823 69 236 1.0 3.0 0.00 0.00 0.00 79 1019.3
20260830210322 69 252 2.0 4.0 0.00 0.00 0.00 78 1019.6
20260830205820 69 234 0.0 2.0 0.00 0.00 0.00 78 1019.3
20260830205319 69 256 0.0 2.0 0.00 0.00 0.00 78 1019.2
20260830204815 69 257 0.0 1.0 0.00 0.00 0.00 79 1019.4
20260830204314 69 269 0.0 3.0 0.00 0.00 0.00 78 1019.2
20260830203810 69 207 0.0 1.0 0.00 0.00 0.00 80 1019.2
20260830203306 68 156 0.0 1.0 0.00 0.00 0.00 80 1019.3
20260830202805 68 212 1.0 2.0 0.00 0.00 0.00 80 1019.4
20260830202300 68 318 0.0 2.0 0.00 0.00 0.00 79 1019.3
20260830201755 68 304 0.0 1.0 0.00 0.00 0.00 80 1019.4
20260830201249 68 344 0.0 1.0 0.00 0.00 0.00 80 1019.2
20260830200745 68 352 1.0 2.0 0.00 0.00 0.00 79 1019.2
20260830200244 68 315 1.0 2.0 0.00 0.00 0.00 79 1019.2
20260830195740 68 352 0.0 4.0 0.00 0.00 0.00 78 1019.2
20260830195238 69 348 1.0 5.0 0.00 0.00 0.00 78 1019.5
20260830194737 69 332 2.0 2.0 0.00 0.00 0.00 76 1019.1
20260830194232 69 318 2.0 4.0 0.00 0.00 0.00 75 1019.2
20260830193731 70 13 1.0 5.0 0.00 0.00 0.00 76 1019.1
20260830193226 70 276 2.0 4.0 0.00 0.00 0.00 72 1019.1
20260830192722 71 316 3.0 3.0 0.00 0.00 0.00 72 1019.3
20260830192217 71 276 2.0 4.0 0.00 0.00 0.00 72 1019.2
20260830191713 71 269 2.0 4.0 0.00 0.00 0.00 72 1019.1
20260830191212 72 322 3.0 5.0 0.00 0.00 0.00 75 1019.2
20260830190708 73 239 3.0 6.0 0.00 0.00 0.00 74 1019.1
20260830190203 73 238 1.0 3.0 0.00 0.00 0.00 74 1019.0
20260830185701 74 256 2.0 3.0 0.00 0.00 0.00 72 1018.9
20260830185157 74 183 2.0 5.0 0.00 0.00 0.00 73 1019.0
20260830184656 74 243 3.0 4.0 0.00 0.00 0.00 72 1019.1
20260830184155 74 178 2.0 5.0 0.00 0.00 0.00 73 1019.0
20260830183651 75 211 0.0 6.0 0.00 0.00 0.00 69 1019.1
20260830183146 75 242 3.0 6.0 0.00 0.00 0.00 68 1019.1
20260830182641 75 248 4.0 7.0 0.00 0.00 0.00 67 1019.1
20260830182137 74 242 4.0 5.0 0.00 0.00 0.00 69 1019.2
20260830181633 74 209 2.0 4.0 0.00 0.00 0.00 70 1019.3
20260830181133 74 196 1.0 6.0 0.00 0.00 0.00 70 1018.9
20260830180632 75 201 2.0 5.0 0.00 0.00 0.00 70 1019.1
20260830180127 75 159 2.0 6.0 0.00 0.00 0.00 68 1019.2
20260830175625 75 135 3.0 5.0 0.00 0.00 0.00 67 1019.1
20260830175121 76 183 1.0 7.0 0.00 0.00 0.00 66 1019.4
20260830174616 75 249 2.0 5.0 0.00 0.00 0.00 66 1019.3
20260830174112 75 249 3.0 6.0 0.00 0.00 0.00 67 1019.4
20260830173607 75 250 0.0 4.0 0.00 0.00 0.00 68 1019.4
20260830173102 75 246 3.0 8.0 0.00 0.00 0.00 66 1019.4
20260830172559 76 267 2.0 6.0 0.00 0.00 0.00 66 1019.5
20260830172054 76 243 6.0 6.0 0.00 0.00 0.00 64 1019.4
20260830171549 76 299 0.0 6.0 0.00 0.00 0.00 66 1019.5
20260830171044 76 249 6.0 7.0 0.00 0.00 0.00 64 1019.4
20260830170544 75 335 2.0 8.0 0.00 0.00 0.00 69 1019.5
20260830170043 75 254 8.0 10.0 0.00 0.00 0.00 65 1019.3
20260830165539 75 130 2.0 6.0 0.00 0.00 0.00 66 1019.9
20260830165034 76 237 5.0 8.0 0.00 0.00 0.00 67 1019.9
20260830164530 75 135 2.0 8.0 0.00 0.00 0.00 69 1019.8
20260830164026 75 243 4.0 9.0 0.00 0.00 0.00 66 1019.9
20260830163523 75 240 3.0 8.0 0.00 0.00 0.00 66 1019.8
20260830163022 75 225 4.0 5.0 0.00 0.00 0.00 70 1019.6
20260830162518 74 227 3.0 8.0 0.00 0.00 0.00 67 1019.9
20260830162018 76 143 0.0 5.0 0.00 0.00 0.00 68 1020.1
20260830161513 75 269 0.0 7.0 0.00 0.00 0.00 69 1020.1
20260830161008 76 263 5.0 7.0 0.00 0.00 0.00 66 1020.1
20260830160504 74 222 4.0 8.0 0.00 0.00 0.00 70 1020.3
20260830155958 72 210 3.0 7.0 0.00 0.00 0.00 71 1020.4
20260830155455 72 225 4.0 7.0 0.00 0.00 0.00 71 1020.3
20260830154950 73 231 5.0 7.0 0.00 0.00 0.00 70 1020.3
20260830154446 71 248 3.0 5.0 0.00 0.00 0.00 75 1020.4
20260830153942 72 236 1.0 4.0 0.00 0.00 0.00 76 1020.3
20260830153438 71 247 4.0 6.0 0.00 0.00 0.00 74 1020.3
20260830152937 70 219 3.0 5.0 0.00 0.00 0.00 76 1020.4
20260830152432 69 244 2.0 5.0 0.00 0.00 0.00 76 1020.4
20260830151931 69 197 0.0 10.0 0.00 0.00 0.00 75 1020.6
20260830151426 70 250 8.0 9.0 0.00 0.00 0.00 75 1020.6
20260830150921 69 250 5.0 7.0 0.00 0.00 0.00 75 1020.5
20260830150420 69 246 4.0 6.0 0.00 0.00 0.00 76 1020.7
20260830145914 68 240 5.0 7.0 0.00 0.00 0.00 75 1020.7
20260830145409 68 256 4.0 8.0 0.00 0.00 0.00 75 1020.7
20260830144904 68 139 2.0 5.0 0.00 0.00 0.00 76 1020.5
20260830144401 68 234 2.0 7.0 0.00 0.00 0.00 77 1020.7
20260830143855 67 208 2.0 6.0 0.00 0.00 0.00 76 1020.7
20260830143350 68 226 3.0 4.0 0.00 0.00 0.00 78 1020.6
20260830142849 66 146 2.0 5.0 0.00 0.00 0.00 78 1020.6
20260830142344 67 262 2.0 5.0 0.00 0.00 0.00 77 1020.4
20260830141839 67 180 0.0 4.0 0.00 0.00 0.00 77 1020.1
20260830141335 66 99 1.0 4.0 0.00 0.00 0.00 78 1020.1
20260830140830 66 117 2.0 2.0 0.00 0.00 0.00 78 1020.1
20260830140325 66 127 2.0 4.0 0.00 0.00 0.00 77 1020.6
20260830135819 66 201 1.0 5.0 0.00 0.00 0.00 79 1020.5
20260830135315 67 248 3.0 4.0 0.00 0.00 0.00 74 1020.6
20260830134810 65 232 1.0 4.0 0.00 0.00 0.00 78 1020.6
20260830134310 65 141 3.0 4.0 0.00 0.00 0.00 79 1020.6
20260830133806 65 234 0.0 3.0 0.00 0.00 0.00 80 1020.7
20260830133302 64 212 1.0 2.0 0.00 0.00 0.00 80 1020.6
20260830132757 64 164 0.0 3.0 0.00 0.00 0.00 81 1020.9
20260830132253 64 195 1.0 2.0 0.00 0.00 0.00 82 1020.6
20260830131751 64 89 0.0 1.0 0.00 0.00 0.00 84 1020.6
20260830131246 64 142 0.0 1.0 0.00 0.00 0.00 83 1020.8
20260830130742 63 135 0.0 1.0 0.00 0.00 0.00 85 1021.0
20260830130242 63 139 0.0 2.0 0.00 0.00 0.00 85 1021.0
20260830125736 63 129 0.0 0.0 0.00 0.00 0.00 85 1021.0
20260830125231 62 129 0.0 0.0 0.00 0.00 0.00 85 1021.0
20260830124728 63 136 1.0 1.0 0.00 0.00 0.00 85 1021.0
20260830124224 62 116 0.0 1.0 0.00 0.00 0.00 84 1020.9
20260830123721 62 160 1.0 2.0 0.00 0.00 0.00 84 1020.9
20260830123217 63 127 1.0 2.0 0.00 0.00 0.00 86 1021.0
20260830122714 62 121 2.0 2.0 0.00 0.00 0.00 89 1020.9
20260830122209 61 89 0.0 0.0 0.00 0.00 0.00 92 1021.0
20260830121704 60 89 0.0 1.0 0.00 0.00 0.00 93 1020.9
20260830121204 59 89 0.0 2.0 0.00 0.00 0.00 94 1021.0
20260830120659 59 125 0.0 2.0 0.00 0.00 0.00 95 1021.1
20260830120155 58 37 0.0 0.0 0.00 0.00 0.00 95 1021.0
20260830115651 58 142 0.0 1.0 0.00 0.00 0.00 96 1021.0
20260830115147 58 87 0.0 1.0 0.00 0.00 0.00 96 1021.1
20260830114643 57 101 0.0 1.0 0.00 0.00 0.00 96 1021.0
20260830114143 57 122 0.0 1.0 0.00 0.00 0.00 96 1021.2
20260830113638 57 60 0.0 2.0 0.00 0.00 0.00 96 1021.3
20260830113133 56 66 0.0 1.0 0.00 0.00 0.00 96 1021.4
20260830112630 56 130 0.0 2.0 0.00 0.00 0.00 96 1021.5
20260830112125 56 125 0.0 2.0 0.00 0.00 0.00 96 1021.4
20260830111621 56 110 1.0 2.0 0.00 0.00 0.00 96 1021.6
20260830111116 56 114 1.0 2.0 0.00 0.00 0.00 96 1021.4
20260830110616 55 111 0.0 2.0 0.00 0.00 0.00 96 1021.6
20260830110112 55 89 0.0 1.0 0.00 0.00 0.00 96 1021.3
20260830105606 55 63 1.0 2.0 0.00 0.00 0.00 96 1021.4
20260830105103 55 54 0.0 2.0 0.00 0.00 0.00 96 1021.4
20260830104559 55 89 0.0 1.0 0.00 0.00 0.00 96 1021.2
20260830104055 55 119 0.0 1.0 0.00 0.00 0.00 96 1021.5
20260830103549 55 97 1.0 2.0 0.00 0.00 0.00 96 1021.3
20260830103049 55 99 1.0 2.0 0.00 0.00 0.00 96 1021.3
20260830102543 55 102 1.0 1.0 0.00 0.00 0.00 96 1021.5
20260830102039 55 120 0.0 2.0 0.00 0.00 0.00 96 1021.3
20260830101534 55 94 0.0 2.0 0.00 0.00 0.00 96 1021.3
20260830101034 55 50 0.0 2.0 0.00 0.00 0.00 96 1021.4
20260830100534 55 89 0.0 2.0 0.00 0.00 0.00 96 1021.4
20260830100033 55 100 1.0 2.0 0.00 0.00 0.00 96 1021.5
20260830095528 55 63 0.0 1.0 0.00 0.00 0.00 96 1021.4
20260830095024 55 54 0.0 2.0 0.00 0.00 0.00 96 1021.3
20260830094520 55 60 0.0 1.0 0.00 0.00 0.00 96 1021.4
20260830094015 55 130 0.0 2.0 0.00 0.00 0.00 96 1021.6
20260830093510 55 125 0.0 2.0 0.00 0.00 0.00 96 1021.8
20260830093006 55 114 1.0 2.0 0.00 0.00 0.00 96 1021.8
20260830092506 56 124 1.0 2.0 0.00 0.00 0.00 96 1021.7
20260830092003 56 135 0.0 2.0 0.00 0.00 0.00 96 1021.6
20260830091458 56 118 0.0 1.0 0.00 0.00 0.00 96 1021.6
20260830090956 56 113 0.0 0.0 0.00 0.00 0.00 96 1021.6
20260830090452 56 113 0.0 1.0 0.00 0.00 0.00 96 1021.8
20260830085947 56 114 0.0 1.0 0.00 0.00 0.00 96 1021.7
20260830085442 56 50 0.0 0.0 0.00 0.00 0.00 96 1021.7
20260830084937 56 50 0.0 1.0 0.00 0.00 0.00 95 1021.6
20260830084433 56 60 0.0 0.0 0.00 0.00 0.00 95 1021.8
20260830083928 56 39 0.0 2.0 0.00 0.00 0.00 95 1021.7
20260830083424 56 113 0.0 2.0 0.00 0.00 0.00 95 1021.6
20260830082923 56 136 0.0 1.0 0.00 0.00 0.00 94 1021.7
20260830082419 57 63 0.0 1.0 0.00 0.00 0.00 94 1022.0
20260830081913 57 113 0.0 1.0 0.00 0.00 0.00 94 1021.8
20260830081409 57 113 0.0 1.0 0.00 0.00 0.00 94 1022.1
20260830080908 57 107 1.0 2.0 0.00 0.00 0.00 94 1021.9
20260830080404 57 129 0.0 1.0 0.00 0.00 0.00 94 1021.9
20260830075903 57 129 0.0 1.0 0.00 0.00 0.00 94 1021.9
20260830075359 57 89 0.0 1.0 0.00 0.00 0.00 94 1021.9
20260830074854 57 120 0.0 1.0 0.00 0.00 0.00 94 1022.2
20260830074349 57 66 0.0 1.0 0.00 0.00 0.00 94 1022.2
20260830073845 57 127 0.0 1.0 0.00 0.00 0.00 94 1022.4
20260830073340 57 49 0.0 1.0 0.00 0.00 0.00 94 1022.2
20260830072835 57 60 0.0 1.0 0.00 0.00 0.00 94 1022.1
20260830072331 57 50 0.0 1.0 0.00 0.00 0.00 94 1022.0
20260830071826 57 60 1.0 1.0 0.00 0.00 0.00 94 1022.1
20260830071325 57 103 0.0 1.0 0.00 0.00 0.00 94 1022.1
20260830070824 57 37 0.0 1.0 0.00 0.00 0.00 94 1021.9
20260830070319 57 37 0.0 1.0 0.00 0.00 0.00 94 1022.0
20260830065818 57 103 0.0 0.0 0.00 0.00 0.00 94 1022.0
20260830065313 57 129 0.0 1.0 0.00 0.00 0.00 94 1022.2
20260830064812 57 124 0.0 0.0 0.00 0.00 0.00 94 1021.9
20260830064307 57 124 0.0 1.0 0.00 0.00 0.00 94 1022.0
20260830063806 57 121 0.0 1.0 0.00 0.00 0.00 94 1021.9
20260830063302 57 103 0.0 1.0 0.00 0.00 0.00 94 1022.0
20260830062756 57 103 0.0 1.0 0.00 0.00 0.00 94 1022.0
20260830062255 57 111 0.0 1.0 0.00 0.00 0.00 94 1022.2
20260830061750 57 129 0.0 0.0 0.00 0.00 0.00 93 1021.9
20260830061245 57 112 0.0 2.0 0.00 0.00 0.00 92 1022.1
20260830060742 57 32 0.0 1.0 0.00 0.00 0.00 92 1021.9
20260830060239 58 37 0.0 1.0 0.00 0.00 0.00 91 1021.9
20260830055733 58 50 0.0 1.0 0.00 0.00 0.00 90 1021.9
20260830055230 57 118 0.0 2.0 0.00 0.00 0.00 92 1022.2
20260830054724 57 110 1.0 1.0 0.00 0.00 0.00 92 1022.0
20260830054220 57 98 0.0 1.0 0.00 0.00 0.00 92 1022.1
20260830053716 57 124 0.0 1.0 0.00 0.00 0.00 92 1022.0
20260830053215 57 50 0.0 1.0 0.00 0.00 0.00 92 1021.9
20260830052709 57 50 0.0 1.0 0.00 0.00 0.00 92 1022.0
20260830052205 57 124 0.0 1.0 0.00 0.00 0.00 92 1021.7
20260830051705 57 55 0.0 1.0 0.00 0.00 0.00 92 1022.0
20260830051201 57 99 0.0 2.0 0.00 0.00 0.00 93 1022.1
20260830050659 57 123 0.0 1.0 0.00 0.00 0.00 93 1022.0
20260830050155 57 129 0.0 0.0 0.00 0.00 0.00 93 1022.0
20260830045653 57 89 0.0 1.0 0.00 0.00 0.00 93 1021.8
20260830045149 57 81 0.0 1.0 0.00 0.00 0.00 94 1021.8
20260830044647 56 114 0.0 2.0 0.00 0.00 0.00 94 1022.0
20260830044143 56 89 1.0 1.0 0.00 0.00 0.00 94 1022.1
20260830043643 56 135 0.0 1.0 0.00 0.00 0.00 94 1022.4
20260830043143 56 114 0.0 2.0 0.00 0.00 0.00 94 1022.0
20260830042640 56 110 0.0 0.0 0.00 0.00 0.00 94 1022.4
20260830042136 56 110 0.0 1.0 0.00 0.00 0.00 95 1022.2
20260830041634 56 119 0.0 2.0 0.00 0.00 0.00 95 1022.2
20260830041134 56 44 0.0 1.0 0.00 0.00 0.00 95 1022.1
20260830040629 55 44 0.0 1.0 0.00 0.00 0.00 95 1022.0
20260830040126 55 130 0.0 1.0 0.00 0.00 0.00 96 1022.0
20260830035623 55 129 0.0 1.0 0.00 0.00 0.00 96 1021.9
20260830035119 55 126 0.0 2.0 0.00 0.00 0.00 96 1021.9
20260830034614 55 66 0.0 1.0 0.00 0.00 0.00 96 1021.9
20260830034113 55 126 0.0 1.0 0.00 0.00 0.00 96 1022.0
20260830033609 55 103 0.0 1.0 0.00 0.00 0.00 96 1021.8
20260830033104 55 103 0.0 0.0 0.00 0.00 0.00 96 1021.9
20260830032603 55 66 0.0 0.0 0.00 0.00 0.00 96 1022.0
20260830032059 55 66 0.0 0.0 0.00 0.00 0.00 96 1022.0
20260830031554 55 66 0.0 1.0 0.00 0.00 0.00 96 1021.9